PBO Station Position Time Series. Reference Frame : NAM14
Format Version,1.1.0
4-character ID,CHOW
Station name,Chowchilla_HWY_9
Begin Date, 2010-10-17
End Date, 2019-09-10
Release Date, 2019-10-02
Reference position, 37.0848514686 North Latitude, -120.2105088434 East Longitude, 46.24879 meters elevation,
Date, North (mm), East (mm), Vertical (mm), North Std. Deviation (mm), East Std. Deviation (mm),              Vertical Std. Deviation (mm), Quality,
2010-10-17,0.00, 0.00, 0.00, 2.19, 1.77, 8.15, repro,
2010-10-18,1.28, -0.69, -5.89, 2.02, 1.64, 7.35, repro,
2010-10-19,4.41, 0.82, -4.73, 2.00, 1.62, 7.28, repro,
2010-10-20,5.54, -0.67, -7.18, 1.97, 1.62, 7.30, repro,
2010-10-21,5.17, 1.50, 0.64, 2.04, 1.68, 7.46, repro,
2010-10-22,2.38, -1.18, -0.84, 1.98, 1.61, 7.20, repro,
2010-10-23,3.25, 0.00, 3.50, 1.96, 1.59, 7.17, repro,
2010-10-24,1.02, -0.42, 2.38, 2.03, 1.65, 7.52, repro,
2010-10-25,3.73, 0.69, -3.74, 2.02, 1.64, 7.49, repro,
2010-10-26,5.58, -1.01, 0.46, 1.95, 1.59, 7.18, repro,
2010-10-27,5.15, 0.82, -1.71, 1.97, 1.63, 7.34, repro,
2010-10-28,4.25, -0.17, 0.29, 1.96, 1.59, 7.22, repro,
2010-10-29,2.63, 0.03, 7.37, 2.03, 1.69, 7.56, repro,
2010-10-30,5.63, -0.08, 2.06, 1.97, 1.61, 7.26, repro,
2010-10-31,3.60, -2.32, -6.18, 2.01, 1.67, 7.45, repro,
2010-11-01,4.67, -0.68, -6.76, 2.07, 1.75, 7.68, repro,
2010-11-02,4.33, -1.37, -7.28, 1.95, 1.59, 7.21, repro,
2010-11-03,4.16, -0.54, -0.59, 2.01, 1.62, 7.34, repro,
2010-11-04,4.04, -0.42, -1.02, 2.03, 1.65, 7.43, repro,
2010-11-05,2.96, 0.67, 7.79, 2.00, 1.65, 7.36, repro,
2010-11-06,6.06, 0.74, -3.66, 2.58, 2.01, 9.20, repro,
2010-11-08,1.44, -2.61, 15.11, 3.66, 3.37, 14.53, repro,
2010-11-09,4.82, -1.36, 1.72, 1.99, 1.62, 7.37, repro,
2010-11-10,2.86, 0.09, 12.38, 1.95, 1.58, 7.11, repro,
2010-11-11,6.24, -0.17, -2.51, 2.01, 1.65, 7.31, repro,
2010-11-12,4.95, -0.12, -0.44, 1.99, 1.60, 7.20, repro,
2010-11-13,3.58, -0.24, -0.65, 2.02, 1.68, 7.49, repro,
2010-11-14,3.87, -1.13, 3.03, 2.03, 1.69, 7.56, repro,
2010-11-15,5.94, 1.15, 2.97, 2.05, 1.68, 7.64, repro,
2010-11-16,5.08, 0.57, 1.77, 2.04, 1.66, 7.54, repro,
2010-11-17,5.48, 1.81, 3.23, 2.04, 1.62, 7.46, repro,
2010-11-18,5.54, 1.38, -2.49, 2.15, 1.72, 7.72, repro,
2010-11-19,3.08, -0.32, 7.05, 2.37, 1.90, 8.43, repro,
2010-11-20,3.88, -2.03, 10.90, 2.49, 1.93, 8.99, repro,
2010-11-23,1.33, 1.72, 13.41, 3.12, 2.75, 12.17, repro,
2010-11-24,3.95, -1.12, 12.76, 2.02, 1.62, 7.40, repro,
2010-11-25,3.25, -1.14, 10.66, 2.00, 1.60, 7.32, repro,
2010-11-26,4.10, 0.01, 6.72, 2.00, 1.62, 7.36, repro,
2010-11-27,1.91, -1.23, 5.56, 2.06, 1.67, 7.55, repro,
2010-11-28,1.34, -2.78, 11.27, 2.51, 1.93, 9.05, repro,
2010-11-30,1.07, -1.73, 2.77, 3.29, 2.89, 12.40, repro,
2010-12-01,3.48, -0.88, 4.04, 2.08, 1.67, 7.68, repro,
2010-12-02,2.06, -0.93, 4.31, 2.01, 1.65, 7.47, repro,
2010-12-03,3.00, -2.00, 8.25, 2.56, 2.05, 9.78, repro,
2010-12-06,2.68, 0.07, 2.24, 2.87, 2.45, 10.83, repro,
2010-12-07,2.73, -0.43, 5.30, 2.03, 1.64, 7.50, repro,
2010-12-08,1.92, -0.68, -9.79, 2.04, 1.62, 7.52, repro,
2010-12-09,1.41, -0.12, 10.54, 2.03, 1.63, 7.39, repro,
2010-12-10,3.00, 0.14, 5.51, 2.05, 1.64, 7.62, repro,
2010-12-11,1.81, 0.11, 10.99, 2.04, 1.65, 7.52, repro,
2010-12-12,1.64, -0.36, 4.38, 2.03, 1.59, 7.41, repro,
2010-12-13,1.82, -0.94, 15.53, 2.04, 1.60, 7.43, repro,
2010-12-14,0.59, -0.87, 16.03, 2.10, 1.67, 7.76, repro,
2010-12-15,1.51, -0.62, 15.00, 2.05, 1.67, 7.57, repro,
2010-12-16,0.61, 0.75, 14.25, 2.09, 1.66, 7.63, repro,
2010-12-17,-1.87, -1.10, 9.69, 2.05, 1.62, 7.40, repro,
2010-12-18,0.94, -3.31, 17.23, 2.07, 1.65, 7.51, repro,
2010-12-19,2.29, -4.08, 15.11, 2.02, 1.61, 7.48, repro,
2010-12-20,2.35, -4.43, 14.71, 2.09, 1.67, 7.63, repro,
2010-12-21,2.06, -2.94, 17.62, 2.04, 1.68, 7.61, repro,
2010-12-22,2.16, -2.80, 10.40, 2.15, 1.73, 7.87, repro,
2010-12-23,2.92, -3.37, 7.86, 2.12, 1.71, 7.73, repro,
2010-12-24,2.53, -3.30, 7.77, 2.01, 1.60, 7.41, repro,
2010-12-25,3.71, -4.11, 15.73, 5.38, 3.92, 19.81, repro,
2010-12-26,3.50, -2.87, 15.64, 2.11, 1.72, 7.90, repro,
2010-12-27,2.87, -1.24, 4.42, 1.98, 1.56, 7.25, repro,
2010-12-28,3.24, -1.32, 11.98, 2.07, 1.66, 7.55, repro,
2010-12-29,1.31, -5.44, 20.79, 2.08, 1.65, 7.61, repro,
2010-12-30,3.75, -3.44, 15.91, 2.08, 1.65, 7.59, repro,
2010-12-31,1.61, -1.60, 18.98, 1.99, 1.59, 7.31, repro,
2011-01-01,0.57, -1.46, 23.38, 2.08, 1.69, 7.69, repro,
2011-01-02,1.54, -1.60, 8.42, 2.14, 1.72, 7.84, repro,
2011-01-03,1.97, -2.46, 11.79, 2.04, 1.65, 7.58, repro,
2011-01-04,2.21, -3.45, 11.88, 2.10, 1.67, 7.64, repro,
2011-01-05,2.33, -2.71, 7.42, 2.04, 1.62, 7.47, repro,
2011-01-06,0.37, -2.87, 15.92, 2.01, 1.61, 7.35, repro,
2011-01-07,0.58, -1.47, 17.23, 2.06, 1.67, 7.65, repro,
2011-01-08,1.71, -1.86, 18.90, 2.05, 1.65, 7.48, repro,
2011-01-09,1.54, -1.80, 10.81, 2.02, 1.61, 7.41, repro,
2011-01-10,1.59, -2.81, 18.54, 2.06, 1.68, 7.66, repro,
2011-01-11,1.78, -2.84, 16.88, 2.08, 1.70, 7.82, repro,
2011-01-12,1.96, -2.08, 9.27, 2.05, 1.65, 7.60, repro,
2011-01-13,1.03, -1.37, 12.13, 2.06, 1.66, 7.57, repro,
2011-01-14,0.28, -1.64, 13.31, 2.06, 1.66, 7.56, repro,
2011-01-15,1.66, -2.19, 15.40, 2.06, 1.65, 7.57, repro,
2011-01-16,1.81, -2.91, 21.11, 2.06, 1.66, 7.71, repro,
2011-01-17,2.77, -1.79, 20.39, 2.08, 1.68, 7.74, repro,
2011-01-18,-0.03, -2.66, 18.98, 2.09, 1.70, 7.74, repro,
2011-01-19,1.33, -1.56, 17.06, 2.06, 1.66, 7.63, repro,
2011-01-20,1.19, -1.95, 18.78, 2.08, 1.65, 7.62, repro,
2011-01-21,1.36, -1.75, 17.12, 2.02, 1.61, 7.44, repro,
2011-01-22,2.30, -1.21, 23.99, 2.12, 1.69, 7.83, repro,
2011-01-23,0.85, -1.08, 21.43, 2.09, 1.70, 7.77, repro,
2011-01-24,1.13, -1.10, 21.59, 2.08, 1.70, 7.77, repro,
2011-01-25,1.34, -2.09, 18.11, 2.09, 1.71, 7.83, repro,
2011-01-26,1.26, -2.03, 18.77, 2.25, 1.82, 8.41, repro,
2011-01-27,2.44, -0.85, 16.77, 2.08, 1.70, 7.81, repro,
2011-01-28,1.69, -1.59, 16.47, 2.09, 1.69, 7.62, repro,
2011-01-29,-0.38, -2.83, 23.04, 2.19, 1.77, 8.18, repro,
2011-01-30,0.10, -3.69, 24.36, 2.07, 1.71, 7.79, repro,
2011-01-31,1.23, -1.97, 12.49, 2.07, 1.69, 7.69, repro,
2011-02-01,2.05, -2.56, 10.75, 2.07, 1.68, 7.73, repro,
2011-02-02,1.48, -3.14, 11.02, 2.05, 1.66, 7.66, repro,
2011-02-03,1.81, -2.68, 8.48, 2.11, 1.70, 7.80, repro,
2011-02-04,1.83, -1.98, 11.01, 2.14, 1.77, 7.95, repro,
2011-02-05,2.88, -2.97, 20.14, 2.13, 1.76, 7.85, repro,
2011-02-06,0.41, -1.02, 15.81, 2.07, 1.70, 7.76, repro,
2011-02-07,2.12, -1.96, 18.99, 2.07, 1.69, 7.72, repro,
2011-02-08,-0.11, -1.96, 25.35, 2.11, 1.68, 7.89, repro,
2011-02-09,1.90, -3.53, 22.21, 2.08, 1.67, 7.74, repro,
2011-02-10,2.01, -2.92, 20.89, 2.03, 1.65, 7.58, repro,
2011-02-11,1.16, -1.59, 24.29, 2.02, 1.64, 7.47, repro,
2011-02-12,2.26, -1.03, 24.62, 2.11, 1.70, 7.72, repro,
2011-02-13,1.74, -2.41, 27.01, 1.99, 1.60, 7.40, repro,
2011-02-14,0.75, -1.72, 29.11, 2.01, 1.61, 7.51, repro,
2011-02-15,0.78, -3.14, 23.09, 2.07, 1.69, 7.63, repro,
2011-02-16,1.23, -1.52, 26.49, 2.02, 1.65, 7.50, repro,
2011-02-17,0.40, -1.71, 33.68, 1.98, 1.60, 7.31, repro,
2011-02-18,0.84, -2.69, 21.86, 2.01, 1.61, 7.45, repro,
2011-02-19,0.14, -1.61, 25.84, 2.01, 1.58, 7.35, repro,
2011-02-20,-0.18, -3.97, 20.25, 2.41, 2.02, 9.14, repro,
2011-02-21,1.90, -4.57, 33.28, 10.19, 6.90, 38.15, repro,
2011-02-22,0.36, -2.88, 29.61, 2.06, 1.62, 7.39, repro,
2011-02-23,1.44, -2.02, 24.81, 2.02, 1.63, 7.42, repro,
2011-02-24,0.91, -2.86, 23.37, 1.97, 1.54, 7.16, repro,
2011-02-25,-0.92, -2.40, 31.63, 2.01, 1.58, 7.31, repro,
2011-02-26,-0.52, -2.94, 35.37, 2.34, 1.95, 8.84, repro,
2011-02-28,-0.03, -3.00, 27.31, 3.45, 2.62, 12.46, repro,
2011-03-01,0.06, -1.80, 23.60, 2.03, 1.62, 7.51, repro,
2011-03-02,1.41, -2.89, 25.98, 2.01, 1.59, 7.31, repro,
2011-03-03,-0.14, -3.97, 20.78, 2.01, 1.59, 7.36, repro,
2011-03-04,0.20, -3.19, 26.89, 2.08, 1.66, 7.59, repro,
2011-03-05,-0.07, -3.51, 24.81, 2.01, 1.57, 7.29, repro,
2011-03-06,0.47, -2.24, 30.49, 1.99, 1.55, 7.26, repro,
2011-03-07,-0.04, -3.70, 41.09, 1.99, 1.57, 7.31, repro,
2011-03-08,0.70, -2.80, 29.16, 2.02, 1.60, 7.35, repro,
2011-03-09,0.76, -2.41, 23.31, 2.01, 1.58, 7.36, repro,
2011-03-10,0.55, -3.82, 30.29, 2.07, 1.62, 7.52, repro,
2011-03-11,-0.53, -2.63, 28.63, 2.05, 1.61, 7.42, repro,
2011-03-12,0.97, -2.60, 31.90, 2.00, 1.57, 7.30, repro,
2011-03-13,-1.79, -3.29, 30.46, 1.99, 1.55, 7.28, repro,
2011-03-14,-0.83, -3.81, 28.41, 2.07, 1.62, 7.47, repro,
2011-03-15,1.31, -3.39, 25.62, 2.07, 1.62, 7.53, repro,
2011-03-16,0.07, -2.90, 32.17, 2.08, 1.61, 7.57, repro,
2011-03-17,-0.39, -2.12, 31.89, 2.16, 1.66, 7.76, repro,
2011-03-18,-1.15, -2.05, 27.91, 2.08, 1.62, 7.55, repro,
2011-03-19,-2.29, -2.35, 30.68, 2.11, 1.68, 7.70, repro,
2011-03-20,-1.53, -3.76, 32.85, 2.04, 1.58, 7.39, repro,
2011-03-21,-0.10, -2.78, 29.96, 2.13, 1.62, 7.62, repro,
2011-03-22,0.61, -2.45, 36.56, 2.13, 1.63, 7.63, repro,
2011-03-23,-1.88, -1.91, 38.51, 2.06, 1.59, 7.42, repro,
2011-03-24,-2.28, -2.67, 45.62, 2.05, 1.59, 7.40, repro,
2011-03-26,-0.40, -2.08, 35.84, 2.20, 1.71, 7.81, repro,
2011-03-27,0.27, -2.33, 29.51, 2.09, 1.64, 7.69, repro,
2011-03-28,-1.34, -2.45, 29.42, 2.00, 1.57, 7.36, repro,
2011-03-29,-0.49, -2.93, 33.02, 2.08, 1.67, 7.64, repro,
2011-03-30,-0.07, -3.59, 34.58, 2.15, 1.70, 7.75, repro,
2011-03-31,0.17, -2.56, 30.01, 2.14, 1.69, 7.93, repro,
2011-04-01,0.63, -1.28, 31.71, 2.12, 1.63, 7.63, repro,
2011-04-02,-1.30, -0.08, 38.12, 2.06, 1.60, 7.46, repro,
2011-04-03,-0.59, -3.21, 36.15, 2.11, 1.64, 7.74, repro,
2011-04-04,-0.63, -1.95, 36.68, 2.13, 1.69, 7.82, repro,
2011-04-05,-1.05, -2.41, 36.64, 2.17, 1.68, 7.82, repro,
2011-04-06,-0.72, -3.44, 41.15, 2.07, 1.60, 7.54, repro,
2011-04-07,-2.54, -2.50, 47.99, 2.07, 1.62, 7.52, repro,
2011-04-08,-2.70, -2.30, 43.88, 2.06, 1.60, 7.41, repro,
2011-04-09,-0.43, -3.31, 43.78, 2.05, 1.61, 7.46, repro,
2011-04-10,-1.80, -3.28, 41.77, 2.08, 1.64, 7.53, repro,
2011-04-11,-1.41, -1.30, 32.47, 2.18, 1.71, 7.74, repro,
2011-04-12,-2.36, -1.50, 36.22, 2.07, 1.64, 7.46, repro,
2011-04-13,-2.75, -1.02, 35.35, 2.03, 1.62, 7.55, repro,
2011-04-14,-1.72, -1.12, 34.49, 1.98, 1.56, 7.27, repro,
2011-04-15,-2.25, -2.40, 29.48, 1.97, 1.55, 7.26, repro,
2011-04-16,-2.38, -1.77, 38.32, 2.01, 1.59, 7.36, repro,
2011-04-17,-2.13, -2.51, 38.11, 2.01, 1.57, 7.27, repro,
2011-04-18,-3.87, -1.60, 49.50, 1.99, 1.55, 7.29, repro,
2011-04-19,-1.20, -1.06, 43.93, 1.99, 1.56, 7.34, repro,
2011-04-20,-1.46, -0.43, 43.09, 2.10, 1.66, 7.83, repro,
2011-04-21,-3.62, -1.81, 43.29, 2.12, 1.69, 7.92, repro,
2011-04-22,-3.17, -2.37, 43.95, 2.02, 1.57, 7.38, repro,
2011-04-23,-3.01, -2.00, 38.55, 2.03, 1.60, 7.41, repro,
2011-04-24,-2.91, -1.37, 45.87, 1.97, 1.54, 7.22, repro,
2011-04-25,-2.83, -1.05, 46.50, 1.98, 1.56, 7.33, repro,
2011-04-26,-4.50, -2.14, 44.99, 2.02, 1.57, 7.35, repro,
2011-04-27,-1.51, -1.18, 44.00, 2.49, 1.92, 9.26, repro,
2011-04-28,-2.38, -2.96, 46.49, 2.00, 1.55, 7.30, repro,
2011-04-29,-2.08, -2.32, 41.91, 1.97, 1.54, 7.19, repro,
2011-04-30,-3.44, -1.41, 46.22, 2.07, 1.61, 7.50, repro,
2011-05-01,-4.51, -1.55, 38.52, 2.14, 1.70, 7.84, repro,
2011-05-02,-3.24, -1.70, 45.20, 2.04, 1.59, 7.51, repro,
2011-05-03,-2.87, -2.09, 41.07, 2.06, 1.64, 7.63, repro,
2011-05-04,-2.63, -1.38, 43.15, 2.06, 1.63, 7.54, repro,
2011-05-05,-3.51, -0.99, 47.19, 2.01, 1.59, 7.42, repro,
2011-05-06,-2.36, -0.22, 53.33, 2.05, 1.62, 7.59, repro,
2011-05-07,-4.37, -2.45, 51.81, 2.00, 1.58, 7.49, repro,
2011-05-08,-5.16, -2.33, 58.40, 2.09, 1.66, 7.76, repro,
2011-05-09,-3.60, -1.31, 48.65, 2.04, 1.61, 7.56, repro,
2011-05-10,-3.61, -1.11, 51.53, 2.01, 1.62, 7.53, repro,
2011-05-11,-3.59, -1.33, 48.55, 2.04, 1.60, 7.46, repro,
2011-05-12,-2.96, 0.02, 45.00, 2.01, 1.59, 7.44, repro,
2011-05-13,-2.05, -0.29, 46.48, 2.01, 1.58, 7.37, repro,
2011-05-14,-4.24, -2.07, 47.84, 2.09, 1.65, 7.72, repro,
2011-05-15,-5.32, -2.48, 49.93, 2.03, 1.60, 7.53, repro,
2011-05-16,-3.84, -0.10, 44.69, 2.02, 1.59, 7.49, repro,
2011-05-17,-5.24, -0.47, 53.57, 2.09, 1.65, 7.68, repro,
2011-05-18,-3.61, -1.03, 55.56, 2.11, 1.67, 7.77, repro,
2011-05-19,-3.40, -0.84, 58.24, 2.20, 1.77, 8.27, repro,
2011-05-20,-3.46, -0.60, 49.65, 2.14, 1.69, 8.00, repro,
2011-05-21,-1.09, 2.26, 55.46, 2.03, 1.60, 7.56, repro,
2011-05-22,-2.78, -0.14, 42.46, 2.05, 1.61, 7.57, repro,
2011-05-23,-2.92, 0.07, 45.97, 2.02, 1.60, 7.49, repro,
2011-05-24,-4.18, -0.22, 56.01, 2.10, 1.67, 7.70, repro,
2011-05-25,-3.21, 0.37, 53.28, 2.08, 1.65, 7.72, repro,
2011-05-26,-3.56, -1.51, 52.43, 2.10, 1.65, 7.73, repro,
2011-05-27,-2.72, 0.38, 48.15, 2.11, 1.67, 7.75, repro,
2011-05-28,-1.46, 0.64, 49.57, 2.03, 1.61, 7.56, repro,
2011-05-29,-1.43, -1.67, 48.34, 2.04, 1.61, 7.60, repro,
2011-05-30,-3.10, -0.59, 58.16, 2.10, 1.65, 7.66, repro,
2011-05-31,-5.74, -2.75, 56.05, 2.07, 1.64, 7.68, repro,
2011-06-01,-3.35, 0.90, 46.53, 2.09, 1.66, 7.63, repro,
2011-06-02,-2.79, -0.36, 47.95, 2.52, 2.10, 9.47, repro,
2011-06-06,-7.62, 0.49, 47.34, 3.63, 2.85, 13.23, repro,
2011-06-07,-2.60, -1.13, 55.03, 2.05, 1.61, 7.49, repro,
2011-06-08,-2.93, -0.94, 50.11, 2.06, 1.63, 7.61, repro,
2011-06-09,-1.21, -1.60, 48.89, 2.05, 1.62, 7.62, repro,
2011-06-10,-3.49, -1.32, 62.96, 2.03, 1.60, 7.51, repro,
2011-06-11,-4.50, -2.48, 57.78, 2.09, 1.64, 7.66, repro,
2011-06-12,-5.35, -3.57, 64.82, 2.06, 1.63, 7.63, repro,
2011-06-13,-2.90, -0.79, 55.76, 2.02, 1.65, 7.58, repro,
2011-06-14,-2.54, -0.94, 53.16, 2.06, 1.64, 7.69, repro,
2011-06-15,-4.92, -1.03, 57.95, 2.11, 1.70, 7.97, repro,
2011-06-16,-3.59, -2.01, 64.06, 2.08, 1.63, 7.68, repro,
2011-06-17,-3.21, 1.91, 64.68, 3.22, 2.80, 12.47, repro,
2011-06-18,-1.39, 1.02, 53.57, 4.55, 3.18, 16.30, repro,
2011-06-19,-2.72, -2.46, 58.75, 2.01, 1.60, 7.46, repro,
2011-06-20,-4.32, -1.02, 54.53, 2.04, 1.62, 7.55, repro,
2011-06-21,-4.26, -1.40, 66.90, 2.06, 1.62, 7.63, repro,
2011-06-22,-5.29, -2.78, 64.66, 2.15, 1.69, 7.88, repro,
2011-06-23,-5.48, 2.77, 67.10, 4.84, 4.33, 19.99, repro,
2012-01-26,-0.03, -4.14, -26.13, 2.79, 2.54, 11.71, repro,
2012-01-27,1.05, -3.01, -34.12, 2.00, 1.58, 7.41, repro,
2012-01-28,1.30, -3.81, -28.98, 2.61, 2.14, 9.68, repro,
2012-01-29,2.74, -4.50, -35.10, 2.02, 1.62, 7.52, repro,
2012-01-30,-0.37, -6.45, -24.63, 2.14, 1.73, 8.00, repro,
2012-01-31,0.96, -4.58, -28.57, 1.97, 1.56, 7.29, repro,
2012-02-01,-0.75, -5.33, -20.91, 1.99, 1.59, 7.40, repro,
2012-02-02,0.81, -4.45, -33.72, 2.62, 2.16, 10.58, repro,
2012-02-03,0.06, -5.71, -27.84, 2.07, 1.62, 7.68, repro,
2012-02-04,0.58, -5.82, -29.82, 2.03, 1.63, 7.58, repro,
2012-02-05,-1.84, -6.24, -22.84, 2.61, 2.45, 10.81, repro,
2012-02-06,0.04, -6.00, -19.89, 2.03, 1.63, 7.58, repro,
2012-02-07,-1.27, -4.82, -21.26, 2.04, 1.58, 7.54, repro,
2012-02-08,-0.48, -7.18, -24.84, 2.15, 1.65, 7.81, repro,
2012-02-09,-0.50, -5.65, -31.24, 2.04, 1.63, 7.51, repro,
2012-02-10,-0.34, -5.57, -26.62, 2.00, 1.60, 7.42, repro,
2012-02-11,0.29, -6.57, -18.86, 2.37, 1.97, 8.92, repro,
2012-02-12,-2.00, -6.11, -23.76, 2.06, 1.63, 7.59, repro,
2012-02-13,-1.58, -6.01, -28.43, 2.01, 1.58, 7.33, repro,
2012-02-14,-1.82, -5.47, -24.40, 2.00, 1.59, 7.37, repro,
2012-02-15,-1.61, -6.33, -20.49, 2.01, 1.60, 7.44, repro,
2012-02-16,0.53, -6.11, -24.75, 2.34, 1.91, 8.60, repro,
2012-02-17,-0.23, -5.20, -26.27, 2.14, 1.67, 7.90, repro,
2012-02-18,-0.37, -4.29, -22.73, 2.36, 1.91, 8.65, repro,
2012-02-19,0.02, -4.24, -14.53, 2.29, 1.78, 8.36, repro,
2012-02-20,1.36, -4.28, -13.61, 2.35, 1.94, 8.75, repro,
2012-02-21,-0.77, -5.15, -18.15, 2.09, 1.67, 7.74, repro,
2012-02-22,0.43, -5.31, -22.85, 2.10, 1.66, 7.72, repro,
2012-02-23,0.48, -4.83, -16.27, 2.09, 1.64, 7.62, repro,
2012-02-24,1.04, -2.83, -21.37, 1.99, 1.54, 7.26, repro,
2012-02-25,-0.50, -4.85, -17.89, 2.01, 1.60, 7.49, repro,
2012-02-26,-1.01, -4.88, -20.26, 2.14, 1.64, 7.89, repro,
2012-02-27,-2.99, -6.18, -21.16, 2.15, 1.61, 7.89, repro,
2012-02-28,-1.27, -6.42, -16.35, 2.14, 1.62, 7.84, repro,
2012-02-29,-0.48, -4.51, -19.65, 2.01, 1.56, 7.36, repro,
2012-03-01,-0.41, -4.53, -24.68, 2.15, 1.65, 7.82, repro,
2012-03-02,0.63, -4.36, -24.60, 2.29, 1.88, 8.30, repro,
2012-03-03,1.44, -4.11, -21.20, 2.03, 1.61, 7.44, repro,
2012-03-04,0.26, -4.02, -28.13, 2.38, 1.96, 8.94, repro,
2012-03-05,0.51, -4.42, -20.30, 2.14, 1.65, 7.70, repro,
2012-03-06,0.45, -4.29, -7.37, 2.18, 1.69, 7.86, repro,
2012-03-07,-1.33, -5.87, -22.43, 2.22, 1.74, 8.12, repro,
2012-03-08,-0.48, -4.14, -25.71, 2.12, 1.62, 7.74, repro,
2012-03-09,-0.10, -4.64, -27.00, 2.08, 1.62, 7.66, repro,
2012-03-10,-2.01, -3.13, -21.43, 2.08, 1.62, 7.63, repro,
2012-03-11,-1.00, -4.52, -13.64, 2.16, 1.65, 7.82, repro,
2012-03-12,-0.49, -3.28, -18.64, 2.14, 1.69, 8.02, repro,
2012-03-13,-1.87, -4.46, -10.04, 2.14, 1.65, 7.77, repro,
2012-03-14,-0.17, -4.60, -18.59, 2.16, 1.68, 8.10, repro,
2012-03-15,-0.96, -4.08, -18.34, 2.19, 1.64, 7.96, repro,
2012-03-16,0.03, -3.66, -15.43, 2.05, 1.60, 7.60, repro,
2012-03-17,-0.73, -5.15, -28.89, 2.07, 1.60, 7.54, repro,
2012-03-18,0.99, -6.01, -17.18, 2.53, 2.03, 9.37, repro,
2012-03-19,-0.55, -6.14, -16.91, 2.09, 1.63, 7.64, repro,
2012-03-20,0.53, -5.82, -16.28, 2.04, 1.60, 7.58, repro,
2012-03-21,-1.69, -4.04, -19.41, 2.24, 1.68, 8.13, repro,
2012-03-22,-1.10, -5.99, -18.90, 2.15, 1.63, 7.75, repro,
2012-03-23,-0.98, -5.25, -20.60, 2.21, 1.69, 7.89, repro,
2012-03-24,-1.51, -5.10, -13.17, 2.08, 1.64, 7.66, repro,
2012-03-25,-4.08, -5.76, -8.73, 4.74, 3.88, 16.00, repro,
2012-04-21,-4.84, -3.78, -6.58, 3.48, 2.60, 12.63, repro,
2012-04-22,-6.62, -5.62, -14.03, 2.09, 1.63, 7.85, repro,
2012-04-23,-6.40, -4.96, -13.12, 2.09, 1.59, 7.69, repro,
2012-04-24,-5.76, -5.21, -12.66, 2.02, 1.60, 7.42, repro,
2012-04-25,-5.64, -4.86, -12.87, 2.06, 1.70, 7.69, repro,
2012-04-26,-5.51, -4.41, -17.35, 2.05, 1.59, 7.68, repro,
2012-04-27,-5.12, -6.72, -8.71, 2.16, 1.71, 7.92, repro,
2012-04-28,-6.17, -4.87, -14.26, 2.17, 1.74, 8.07, repro,
2012-04-29,-6.24, -5.90, -18.21, 2.05, 1.62, 7.52, repro,
2012-04-30,-5.48, -4.44, -15.65, 3.56, 3.47, 14.20, repro,
2012-05-09,-7.49, -5.83, -9.02, 2.86, 2.14, 10.61, repro,
2012-05-10,-6.85, -5.34, -10.25, 2.15, 1.67, 7.81, repro,
2012-05-11,-5.91, -4.92, -20.23, 2.02, 1.59, 7.44, repro,
2012-05-12,-7.07, -5.35, -9.92, 2.10, 1.62, 7.82, repro,
2012-05-13,-8.83, -5.29, -10.77, 2.03, 1.64, 7.58, repro,
2012-05-14,-7.32, -4.92, -19.51, 2.02, 1.60, 7.55, repro,
2012-05-15,-5.60, -4.14, -11.15, 2.04, 1.60, 7.54, repro,
2012-05-16,-6.80, -5.23, -7.46, 2.13, 1.63, 7.75, repro,
2012-05-17,-5.25, -4.67, -14.08, 2.04, 1.58, 7.63, repro,
2012-05-18,-8.61, -6.62, -6.99, 2.04, 1.62, 7.61, repro,
2012-05-19,-8.25, -6.17, -9.95, 2.07, 1.65, 7.71, repro,
2012-05-20,-7.60, -5.05, -7.41, 2.23, 1.71, 8.40, repro,
2012-05-21,-6.56, -5.24, -10.20, 2.12, 1.66, 7.69, repro,
2012-05-22,-6.44, -4.26, -12.80, 2.19, 1.72, 7.91, repro,
2012-05-23,-5.56, -4.43, 4.10, 2.09, 1.65, 7.62, repro,
2012-05-24,-6.01, -6.68, -1.85, 2.32, 1.88, 8.99, repro,
2012-05-25,-6.72, -5.88, -7.86, 2.40, 1.83, 8.88, repro,
2012-05-26,-4.98, -3.93, -8.50, 2.33, 1.92, 8.83, repro,
2012-05-27,-2.41, -7.52, -4.32, 3.80, 2.81, 13.37, repro,
2012-05-28,-4.12, -1.30, -6.16, 2.29, 1.80, 8.54, repro,
2012-05-29,-5.31, -3.39, -5.68, 2.04, 1.61, 7.50, repro,
2012-05-30,-4.51, -3.83, 3.90, 2.11, 1.64, 7.77, repro,
2012-05-31,-2.82, -2.90, -7.30, 2.33, 1.90, 8.52, repro,
2012-06-01,-4.10, -3.70, 0.41, 2.17, 1.65, 7.94, repro,
2012-06-02,-4.57, -3.15, 1.80, 2.08, 1.59, 7.76, repro,
2012-06-03,-2.16, -2.72, -4.69, 1.99, 1.56, 7.38, repro,
2012-06-04,-5.10, -1.93, -3.35, 2.03, 1.62, 7.55, repro,
2012-06-05,-3.24, -3.39, -1.71, 2.10, 1.62, 7.83, repro,
2012-06-06,-3.48, -1.25, 1.22, 2.01, 1.59, 7.42, repro,
2012-06-07,-2.61, -1.81, -1.20, 2.00, 1.57, 7.39, repro,
2012-06-08,-2.62, 0.39, -3.72, 2.35, 1.83, 8.38, repro,
2012-06-09,-2.87, -0.50, 4.45, 2.04, 1.56, 7.45, repro,
2012-06-10,-4.27, -1.21, -2.04, 2.00, 1.57, 7.59, repro,
2012-06-11,-4.27, -1.35, -2.53, 2.03, 1.63, 7.62, repro,
2012-06-12,-3.66, -0.17, 2.91, 2.06, 1.57, 7.48, repro,
2012-06-13,-1.86, 0.04, 1.05, 2.03, 1.60, 7.54, repro,
2012-06-14,-3.51, -0.97, 4.66, 2.00, 1.55, 7.42, repro,
2012-06-15,-2.86, -1.26, 4.35, 1.98, 1.55, 7.34, repro,
2012-06-16,-2.11, -1.73, 3.60, 2.08, 1.67, 7.86, repro,
2012-06-17,-3.03, -0.10, 5.12, 2.01, 1.56, 7.36, repro,
2012-06-18,-2.18, -0.82, 5.57, 1.98, 1.54, 7.37, repro,
2012-06-19,-1.97, -0.70, -2.29, 2.28, 1.86, 8.64, repro,
2012-06-20,-3.07, -1.89, 8.57, 2.05, 1.58, 7.68, repro,
2012-06-21,-3.16, -2.37, -3.48, 2.39, 1.95, 8.88, repro,
2012-06-22,-1.74, 1.49, -3.43, 2.03, 1.59, 7.53, repro,
2012-06-23,-1.06, 0.60, 0.65, 2.01, 1.58, 7.44, repro,
2012-06-24,-2.97, -0.50, 2.82, 2.04, 1.56, 7.55, repro,
2012-06-25,-4.37, -0.83, 4.59, 2.06, 1.59, 7.69, repro,
2012-06-26,-2.70, -0.10, -1.50, 2.03, 1.61, 7.66, repro,
2012-06-27,-0.41, -0.12, -2.42, 2.38, 1.94, 8.85, repro,
2012-06-28,-0.46, 1.85, 4.02, 2.02, 1.58, 7.42, repro,
2012-06-29,-1.21, 0.02, 1.70, 2.01, 1.58, 7.37, repro,
2012-06-30,-1.52, -2.48, 11.43, 1.98, 1.56, 7.39, repro,
2012-07-01,-2.26, 0.41, 9.13, 2.01, 1.58, 7.48, repro,
2012-07-02,-2.07, -0.51, 5.46, 2.08, 1.60, 7.66, repro,
2012-07-03,-2.21, 1.76, 11.42, 1.99, 1.54, 7.28, repro,
2012-07-04,-4.57, -0.51, 4.22, 2.00, 1.55, 7.31, repro,
2012-07-05,-0.81, -0.08, 8.27, 2.01, 1.60, 7.50, repro,
2012-07-06,-1.69, 1.09, -2.37, 2.01, 1.60, 7.53, repro,
2012-07-07,0.61, 1.20, 3.08, 2.03, 1.60, 7.52, repro,
2012-07-08,-1.88, 0.88, 1.77, 2.05, 1.60, 7.55, repro,
2012-07-09,-1.55, 1.16, 3.88, 1.98, 1.54, 7.29, repro,
2012-07-10,-2.50, -0.41, 6.03, 2.19, 1.74, 8.30, repro,
2012-07-11,-1.53, 0.76, 11.76, 2.04, 1.57, 7.58, repro,
2012-07-12,-1.52, 0.77, 13.97, 2.35, 1.89, 8.61, repro,
2012-07-13,-2.59, 1.31, 3.49, 2.05, 1.60, 7.59, repro,
2012-07-14,-2.07, 1.37, 5.22, 2.05, 1.56, 7.59, repro,
2012-07-15,-1.89, 1.40, 8.24, 2.08, 1.62, 7.69, repro,
2012-07-16,-2.57, 1.67, 3.89, 2.02, 1.59, 7.48, repro,
2012-07-17,-1.24, 1.36, 15.69, 1.97, 1.55, 7.32, repro,
2012-07-18,-1.65, 2.28, 15.86, 2.08, 1.60, 7.65, repro,
2012-07-19,-1.18, 0.84, 17.93, 2.02, 1.56, 7.45, repro,
2012-07-20,-1.13, 2.00, 2.99, 2.00, 1.57, 7.49, repro,
2012-07-21,-3.36, -1.03, 6.61, 2.42, 1.97, 8.99, repro,
2012-07-22,-2.49, 0.40, 6.82, 1.98, 1.56, 7.37, repro,
2012-07-23,0.70, 1.70, 5.09, 2.02, 1.56, 7.38, repro,
2012-07-24,-1.92, 2.17, 9.76, 2.07, 1.62, 7.71, repro,
2012-07-25,-1.87, 1.19, 11.63, 1.98, 1.54, 7.29, repro,
2012-07-26,-1.01, 0.73, 11.46, 1.97, 1.54, 7.30, repro,
2012-07-27,-0.70, -0.19, 10.76, 2.02, 1.58, 7.53, repro,
2012-07-28,-0.25, 0.05, 9.55, 2.00, 1.56, 7.42, repro,
2012-07-29,0.72, 2.23, 1.85, 2.01, 1.56, 7.36, repro,
2012-07-30,-0.53, 1.74, 9.58, 2.08, 1.60, 7.69, repro,
2012-07-31,0.66, 2.57, 5.18, 2.29, 1.81, 8.36, repro,
2012-08-01,-1.26, 2.12, 7.76, 2.06, 1.65, 7.62, repro,
2012-08-02,-0.90, 0.88, 7.99, 2.06, 1.62, 7.65, repro,
2012-08-03,-1.75, -0.42, 7.66, 1.99, 1.56, 7.34, repro,
2012-08-04,-0.73, -0.32, 16.99, 2.06, 1.56, 7.58, repro,
2012-08-05,-0.28, 1.61, 7.35, 1.99, 1.56, 7.36, repro,
2012-08-06,-1.40, 0.81, 14.99, 2.00, 1.55, 7.36, repro,
2012-08-07,0.15, 1.33, 12.07, 2.18, 1.66, 8.03, repro,
2012-08-08,0.43, 2.40, 18.46, 2.49, 2.02, 9.23, repro,
2012-08-09,-1.41, 1.26, 9.63, 2.04, 1.59, 7.45, repro,
2012-08-10,-0.56, 1.00, 14.46, 2.06, 1.60, 7.47, repro,
2012-08-11,-0.76, 2.00, 16.61, 2.09, 1.59, 7.66, repro,
2012-08-12,-0.78, 1.23, 12.55, 2.08, 1.59, 7.68, repro,
2012-08-13,-1.08, 2.56, 15.78, 2.10, 1.66, 7.73, repro,
2012-08-14,-0.52, 2.58, 11.01, 2.09, 1.63, 7.67, repro,
2012-08-15,-0.16, 2.56, 13.40, 2.12, 1.63, 7.78, repro,
2012-08-16,0.17, 2.96, 14.97, 2.10, 1.66, 7.77, repro,
2012-08-17,-0.94, 3.75, 18.10, 2.41, 1.92, 8.84, repro,
2012-08-18,-1.46, 3.32, 14.41, 2.03, 1.61, 7.59, repro,
2012-08-19,-0.19, 2.12, 10.09, 2.09, 1.61, 7.78, repro,
2012-08-20,-1.87, 1.53, 23.56, 2.20, 1.65, 7.89, repro,
2012-08-21,-0.21, 2.28, 20.15, 2.05, 1.61, 7.52, repro,
2012-08-22,-0.14, 1.31, 17.07, 2.13, 1.69, 7.79, repro,
2012-08-23,1.61, 3.09, 17.82, 2.40, 1.97, 9.00, repro,
2012-08-24,-1.51, 1.56, 13.25, 2.42, 1.96, 9.06, repro,